Zurück zum Katalog

CZ-6A DEB

AktivSSO
NORAD 54268·DEBRIS·🇨🇳 China

Gestartet Nov 11, 2022 von Taiyuan Satellite Launch Center

Loading…

Nächste Überflüge (nächste 24 Stunden)

TLE

AktuellSource: Space-Track

Epoche: Sep 14, 2026, 08:38 UTC

1 54268U 22151K   26257.35993311 -.00000167  00000-0 -88554-4 0  9992
2 54268  98.9085 220.4961 0121408 195.3834 164.3624 13.94136973194791

Verfolge CZ-6A DEB in Echtzeit mit AllMySat

Download on the App Store